www.pogodaiklimat.ru

Погода и климат >> Архив погоды >> Россия >> Краснодарский край >> Темрюк


ПОГОДА в Темрюке

  • Прогноз погоды в Темрюке
  • Монитор погоды в Темрюке

АРХИВ ПОГОДЫ в Темрюке

Время (UTC), дата Ветер
(напр.,м/с)
 
Видим.   Явления Облачность Т
(С)
Тd
(С)
f
(%)
Тe
(С)
Тes
(С)
Комфортность P
(гПа)
Po
(гПа)
Тmin
(С)
Tmax
(С)
R
(мм)
R24
(мм)
S
(см)
09 13.04 ЮЗ 4 10 км 10/10 600 м
[Cb cap]
+13.4 +9.8 79 +12 +12 1016.0 1015.6
12 13.04 ЮЗ 4 10 км 10/10 600 м
[Cb cap]
+13.8 +10.5 80 +12 +12 1016.2 1015.8
15 13.04 ЮЗ 3 10 км 10/10 600 м
[Cb cap]
+13.3 +11.5 89 +12 +12 1015.9 1015.5 +14.2
18 13.04 Ю 1 10 км 10/10 600 м
[Cb cap]
+12.4 +10.7 89 +12 +12 1016.2 1015.9
21 13.04 штиль 0 10 км 10/10 600 м
[Cb cap]
+9.7 +9.6 99 +9 +9 1015.5 1015.1
00 14.04 В 2 10 км 10/10 600 м
[Cb cap]
+10.3 +10.3 100 +9 +9 1013.9 1013.5
03 14.04 В 2 10 км 9/8 600 м
[Cb cap Ac trans Ci fib]
+9.2 +9.2 100 +7 +7 1012.6 1012.3 +9.0
06 14.04 В 3 10 км 10/10 600 м
[Cb cap]
+11.6 +11.6 100 +10 +10 1012.5 1012.1
09 14.04 В 3 10 км слаб. ливневой дождь 10/10 600 м
[Cb cap]
+12.7 +12.2 97 +11 +11 1012.1 1011.7
12 14.04 СВ 4 10 км {ливн. осадки} 10/8 600 м
[Cb cap Ac und]
+13.8 +13.3 97 +12 +13 1009.5 1009.1
15 14.04 В 6-10
{10}
10 км 10/4 600 м
[Cb cap Ac trans Ci fib]
+15.7 +13.4 86 +14 +14 1008.0 1007.7 +16.3 2
18 14.04 В 4
{10}
10 км 10/0
[Ac und]
+14.0 +13.3 96 +12 +12 1008.3 1008.0
21 14.04 В 2 10 км 10/5 600 м
[Cb cap Ac und]
+12.5 +12.4 99 +11 +11 1007.8 1007.4
00 15.04 В 1 10 км 10/10 600 м
[Cb cap]
+12.1 +12.1 100 +12 +12 1007.3 1007.0
03 15.04 Ю 2 10 км слаб. ливневой дождь 10/10 600 м
[Cb cap]
+11.3 +11.3 100 +10 +10 1008.5 1008.2 +11.2 4
06 15.04 Ю 4 10 км {ливн. осадки} 10/10 600 м
[Cb cap]
+11.9 +11.0 94 +10 +10 1009.7 1009.4 +11.1
09 15.04 Ю 6-11
{12}
10 км 10/10 600 м
[Cb cap]
+13.0 +10.4 84 +11 +11 1011.1 1010.7
12 15.04 Ю 4
{11}
10 км 10/10 600 м
[Cb cap]
+13.1 +10.6 85 +11 +11 1011.9 1011.5
15 15.04 Ю 4
{10}
1000 м 10/10 600 м
[Cb cap]
+12.7 +10.6 87 +11 +11 1011.8 1011.4 +14.0 1
18 15.04 Ю 2 10 км 10/10 600 м
[Cb cap]
+11.9 +10.3 90 +11 +11 1012.7 1012.4
21 15.04 Ю 2 10 км 10/10 600 м
[Cb cap]
+11.0 +9.5 90 +10 +10 1013.0 1012.7
00 16.04 Ю 1 10 км 10/10 600 м
[Cb cap]
+10.4 +8.2 86 +10 +10 1013.3 1013.0
03 16.04 Ю 1 10 км 10/10 600 м
[Cb cap]
+9.8 +6.8 82 +9 +9 1013.7 1013.3 +9.8
06 16.04 Ю 1 10 км слаб. ливневой дождь 10/10 600 м
[Cb cap]
+9.4 +8.6 95 +9 +9 1014.8 1014.4 +9.2
09 16.04 ЮЗ 3 10 км {ливн. осадки} 10/10 600 м
[Cb cap]
+10.8 +8.1 83 +9 +9 1014.9 1014.6
12 16.04 С 3 10 км {ливн. осадки} 10/10 600 м
[Cb cap]
+11.0 +8.6 85 +9 +9 1014.3 1014.0
15 16.04 С 3 10 км 10/10 600 м
[Cb cap]
+10.7 +8.2 85 +9 +9 1014.8 1014.4 +12.1 0.6
18 16.04 С 2 10 км 10/10 600 м
[Cb cap]
+9.9 +7.9 87 +8 +8 1015.5 1015.1
21 16.04 С 1 10 км 10/10 600 м
[Cb cap]
+10.0 +7.5 84 +10 +10 1014.8 1014.5
00 17.04 СЗ 2 10 км 4/4 600 м
[Cb cap]
+8.7 +7.9 95 +7 +7 1014.0 1013.6
03 17.04 ЮВ 2 10 км 8/8 600 м
[Cb cap]
+9.4 +8.4 93 +8 +8 1012.9 1012.5 +7.4
06 17.04 СЗ 4 10 км 9/9 600 м
[Cb cap]
+10.9 +8.9 87 +8 +9 1012.9 1012.5
09 17.04 С 2 10 км {ливн. осадки} 10/10 600 м
[Cb cap]
+11.2 +11.2 100 +10 +10 1012.8 1012.5
12 17.04 СВ 4
{10}
10 км {ливн. осадки} 10/10 600 м
[Cb cap]
+12.4 +10.3 87 +10 +10 1013.6 1013.2
15 17.04 СВ 6-12
{12}
10 км в посл. час ливневой дождь 10/10 600 м
[Cb cap]
+8.5 +8.2 98 +4 +4 1016.1 1015.7 +13.1 0.8
18 17.04 СВ 6-11
{14}
10 км {ливн. осадки} 10/10 600 м
[Cb cap]
+7.2 +5.4 88 +3 +3 1018.6 1018.2
21 17.04 СВ 8-14
{15}
10 км 10/10 600 м
[Cb cap]
+6.3 +3.8 84 +1 +1 1019.2 1018.8
00 18.04 СВ 8-14
{15}
10 км 10/10 600 м
[Cb cap]
+5.7 +3.3 85 0 0 1019.2 1018.8
03 18.04 В 7-13
{14}
10 км 10/10 600 м
[Cb cap]
+4.0 +1.8 86 -2 -2 1019.7 1019.3 +4.0
06 18.04 СВ 7-12
{14}
10 км 10/10 600 м
[Cb cap]
+4.7 +1.0 77 -1 -1 1020.8 1020.4 +3.8
09 18.04 В 7-12
{15}
10 км 10/10 600 м
[Cb cap]
+4.8 +2.0 82 -1 -1 1021.5 1021.1
12 18.04 В 7-12
{14}
10 км 10/10 600 м
[Cb cap]
+6.1 +2.9 80 +1 +1 1021.3 1020.9
15 18.04 -11
{14}
10 км н/о +6.3 +4.2 86 +2 +2 1020.9 1020.5 +6.3
18 18.04 В 6-10
{12}
10 км слаб. ливневой дождь 10/10 600 м
[Cb cap]
+6.1 +3.7 85 +1 +1 1021.8 1021.4
21 18.04 В 6
{12}
10 км {ливн. осадки} 10/10 600 м
[Cb cap]
+5.6 +2.2 79 +1 +1 1020.9 1020.5
00 19.04 В 5
{10}
10 км {ливн. осадки} 10/10 600 м
[Cb cap]
+4.9 +2.3 83 0 0 1019.9 1019.5
03 19.04 В 5
{11}
10 км 10/10 600 м
[Sc]
+4.8 -0.8 67 0 0 1018.9 1018.5 +4.6 0.8
06 19.04 В 7-12
{13}
10 км 10/10 600 м
[Cb cap]
+3.6 +2.3 91 -3 -3 1019.5 1019.1 +3.6
09 19.04 СВ 8-14
{14}
10 км слаб. ливневой дождь 10/10 600 м
[Cb cap]
+4.1 +2.0 86 -2 -2 1019.4 1019.0
12 19.04 СВ 8-13
{16}
10 км слаб. ливневой дождь 10/10 600 м
[Cb cap]
+5.7 +1.5 74 0 0 1019.3 1018.9
15 19.04 СВ 6-12
{15}
10 км 10/10 600 м
[Cb cap]
+7.1 +1.0 65 +3 +3 1018.8 1018.4 +7.1 2
18 19.04 СВ 6-10
{13}
10 км 10/10 600 м
[Sc]
+7.6 +0.1 59 +4 +4 1019.3 1018.9
21 19.04 СВ 7-12
{13}
10 км 10/10 600 м
[Cb cap]
+7.1 -3.0 49 +3 +3 1019.0 1018.6
00 20.04 В 6-11
{12}
10 км 10/10 600 м
[Cb cap]
+5.6 -3.0 54 +1 +1 1019.0 1018.6
03 20.04 СВ 6-12
{12}
10 км 8/8 600 м
[Sc]
+4.0 -2.9 61 -1 -1 1019.1 1018.7 +4.0

 

Местоположение метеостанции Темрюк (Краснодарский край, Россия): широта 45.32 долгота 37.38 высота над уровнем моря 3 м.

В архиве по умолчанию представлена погода в Темрюке за последнюю неделю. Архивные данные за месяц целиком и за предыдущие месяцы, начиная с января 2011 года, Вы можете получить, выбрав интересующий диапазон дат из раскрывающегося списка и нажав кнопку "Ввод!".


*Определитесь, кто Вы:
робот инопланетянин человек

Внимание! Время в таблицах - всемирное. Для получения местного времени необходимо прибавить поправку, которая равна 3 ч.

Смотрите также архив погоды в соседних городах и на ближайших метеорологических станциях:

Погода в Анапе (Краснодарский край, Россия) (50 км)
Погода в Тамани (Краснодарский край, Россия) (53 км)
Погода в Славянске-на-Кубани (Краснодарский край, Россия) (58 км)
Погода в Опасном (Крым, Россия) (59 км)
Погода в Крымске (Краснодарский край, Россия) (66 км)
Погода в Керчи (Крым, Россия) (74 км)
Погода в Новороссийске (Краснодарский край, Россия) (76 км)
Погода в Приморско-Ахтарске (Краснодарский край, Россия) (99 км)
Погода в Геленджике (Краснодарский край, Россия) (100 км)
Погода в Мысовом (Крым, Россия) (123 км)

Пояснения к столбцам:

Ветер - указаны скорость ветра в м/с - средняя за 10 мин, порывы в срок и между сроками (в фигурных скобках) и направление, откуда дует ветер: С - северный, СВ - северо-восточный, В - восточный, ЮВ - юго-восточный, Ю - южный, ЮЗ - юго-западный, З - западный, СЗ - северо-западный.
Видимость - горизонтальная дальность видимости в метрах или километрах. При видимости от 1 до 10 км при отсутствии осадков обычно наблюдается дымка, при ухудшении видимости до 1 км и менее - туман. В сухую погоду видимость может ухудшаться дымом, пылью или мглою.
Явления - указаны атмосферные явления, наблюдавшиеся в срок или в последний час перед сроком; фигурными скобками обозначены явления, наблюдавшиеся между сроками (за 1-3 часа до срока); квадратными скобками обозначены град или гололедные отложения с указанием их диаметра в мм.
Облачность - указаны через наклонную черту общая и нижняя облачность в баллах и высота нижней границы облаков в метрах; квадратными скобками обозначены формы облаков: Ci - перистые, Cs - перисто-слоистые, Cc - перисто-кучевые, Ac - высококучевые, As - высокослоистые, Sc - слоисто-кучевые, Ns - слоисто-дождевые, Cu - кучевые, Cb - кучево-дождевые. Подробнее классификацию облаков см. в Атласе облаков (PDF).
T - Температура воздуха - температура, измеренная на высоте 2 м над землей.
Td - Температура точки росы - температура, при понижении до которой содержащийся в воздухе водяной пар достигнет насыщения.
f - Относительная влажность воздуха - влажноcть воздуха, измеренная на высоте 2 м над землей.
Te - Эффективная температура - температура, которую ощущает одетый по сезону человек в тени. Характеристика душности погоды. При расчете учитывается влияние влажности воздуха и скорости ветра на теплоощущения человека.
Tes - Эффективная температура на солнце - температура, которую ощущает человек, с поправкой на солнечный нагрев. Характеристика знойности погоды. Зависит от высоты солнца над горизонтом, облачности и скорости ветра. Ночью, в пасмурную погоду, а также при ветре 12 м/с и более поправка равна нулю.
P - Атмосферное давление - приведенное к уровню моря атмосферное давление.
Po - Атмосферное давление - измеренное на уровне метеостанции атмосферное давление.
Tmin - Минимальная температура - минимум температуры воздуха на высоте 2 м над землей.
Tmax - Максимальная температура - максимум температуры воздуха на высоте 2 м над землей.
R - Количество осадков - Количество выпавших осадков за период времени, мм. При наведении курсора мыши на число - период времени, за который выпало указанное количество осадков.
R24 - Количество осадков - Количество выпавших осадков за 24 часа, мм.
S - Снежный покров - Высота снежного покрова, см. При наведении курсора мыши на число - состояние снежного покрова и степень покрытия местности в баллах.